Theta_e
323 331 345 347 349 349 349 348 348 348 347 346 348 347 347 346 347 348 348 348 348 348 347 346 346 345 344 344 343 342 339 339 338 339 340 341 348 346 350 350 348 346 351
326 332 345 348 348 349 349 349 348 348 348 347 346 345 344 343 343 343 343 343 344 345 344 343 341 340 341 339 338 336 336 335 333 333 335 334 341 350 350 349 349 347 350
329 334 340 347 349 349 349 349 348 348 348 346 345 344 342 340 338 337 337 339 340 341 340 336 334 334 333 333 332 331 330 329 326 327 329 326 330 348 347 346 346 347 348
330 332 336 345 348 349 348 347 348 347 347 346 343 341 339 339 336 335 335 336 337 336 334 333 331 328 328 326 326 324 326 324 324 326 320 326 329 346 347 345 344 344 345
326 329 333 342 347 348 348 348 347 345 344 342 341 338 339 336 334 332 331 333 334 332 329 326 324 323 322 321 322 322 322 321 320 317 316 319 326 340 346 344 342 341 342
322 325 334 341 343 342 343 343 342 342 341 339 337 336 335 333 330 327 327 329 327 325 323 322 321 320 320 320 320 319 318 315 310 304 309 314 323 343 343 341 340 340 339
318 322 328 339 341 341 340 341 338 339 338 336 335 334 331 328 326 325 325 324 323 322 321 321 320 320 319 318 317 317 314 311 299 301 306 309 320 334 334 335 335 336 335
317 319 325 333 336 336 339 337 337 337 335 334 332 330 327 325 323 323 323 322 322 321 321 321 320 318 317 316 314 313 310 306 298 298 303 307 324 329 329 329 329 329 329
314 317 320 324 328 332 334 333 336 335 333 331 328 326 324 323 322 321 321 321 320 320 319 317 316 316 315 313 311 308 306 304 293 297 303 307 322 325 326 325 325 325 325
310 314 315 317 319 320 322 329 331 331 330 328 326 325 323 322 321 321 320 320 319 318 316 314 313 312 311 309 307 304 302 300 292 294 298 306 317 321 322 322 322 322 323
307 309 311 312 313 314 314 318 324 326 325 324 322 320 314 305 306 306 313 318 317 315 313 312 309 307 305 305 304 302 297 290 291 292 296 308 314 318 319 319 320 321 322
304 305 307 308 309 309 312 311 311 313 311 309 307 303 300 299 299 303 310 315 314 312 310 308 305 301 294 289 289 293 288 289 289 290 294 307 311 314 317 318 319 321 322
306 305 306 306 306 306 307 305 304 304 302 301 300 297 295 296 298 297 296 295 294 297 292 292 289 289 288 288 288 287 287 287 287 289 295 303 307 311 314 316 319 319 320
301 304 304 304 304 303 304 304 301 301 298 296 296 294 292 293 293 292 290 288 288 288 287 287 287 287 287 288 287 287 287 287 286 288 290 300 305 310 314 317 317 317 318
299 302 303 304 304 304 301 301 299 298 298 295 293 292 292 292 290 289 288 287 286 287 286 286 286 286 286 287 287 286 286 286 286 287 287 300 305 309 312 315 316 317 318
300 300 302 302 304 303 303 301 300 298 296 293 292 292 291 292 289 288 287 286 286 286 286 286 285 285 285 286 286 286 286 286 286 286 287 290 303 307 312 311 314 315 315
299 300 299 301 302 301 302 300 299 297 295 294 292 291 291 291 289 288 287 285 285 285 286 285 284 284 284 285 284 285 285 285 285 286 287 288 291 303 307 310 310 311 311
298 296 297 301 300 300 300 298 298 296 295 294 292 292 291 291 289 287 287 285 285 285 285 284 283 283 283 283 282 283 283 285 285 286 287 288 289 291 299 305 304 305 306
298 297 295 297 298 299 299 297 296 294 294 293 292 291 291 290 289 288 287 285 285 284 284 284 282 282 281 282 283 282 282 283 284 286 285 285 289 288 290 296 296 296 299
298 298 296 295 297 297 298 295 293 292 293 292 292 291 290 291 289 288 286 285 284 283 283 283 282 282 281 281 283 282 282 283 282 282 282 284 285 287 285 286 286 286 294
296 296 295 293 295 295 295 292 292 292 292 291 292 291 290 290 289 288 286 285 284 283 283 282 281 281 281 280 280 280 281 282 282 282 282 283 284 284 284 284 284 284 285
296 296 296 295 294 294 295 295 295 295 293 293 291 290 290 289 288 287 286 285 284 282 282 281 281 280 281 279 280 279 278 280 281 282 282 282 281 282 282 283 283 283 284
293 294 295 295 295 294 295 294 287 287 286 286 287 288 289 288 288 288 286 285 284 283 282 281 281 281 280 279 279 280 277 279 277 280 280 281 281 281 281 282 283 283 283
294 295 295 295 295 294 294 293 292 292 290 290 290 290 289 288 287 287 286 285 284 283 282 282 281 280 280 279 279 281 278 278 277 276 279 279 280 280 280 280 281 282 283
293 293 295 295 294 294 293 294 292 293 293 289 290 289 288 287 287 286 285 284 283 283 282 281 280 280 279 280 279 279 278 277 278 277 276 277 279 279 280 280 281 281 282
293 292 292 293 293 292 292 293 292 292 291 287 287 287 287 286 286 285 285 284 284 283 281 281 281 280 280 280 280 280 279 278 277 277 276 276 276 278 279 279 279 279 281
Wind_Speed
5 6 10 14 14 15 14 12 11 11 10 11 11 11 11 10 9 11 10 8 8 10 11 11 12 13 11 12 14 15 14 15 15 15 15 14 14 7 8 9 8 6 11
8 7 9 15 15 16 15 12 12 12 12 12 10 10 9 9 8 9 10 9 8 11 12 12 12 12 13 14 14 13 13 14 15 15 15 14 13 14 14 13 11 9 12
11 7 7 14 14 14 14 13 14 13 12 11 11 9 8 7 7 6 5 6 7 9 10 8 8 8 10 10 11 11 13 14 14 14 13 6 7 13 14 14 14 15 14
9 6 6 10 14 14 13 15 15 14 12 12 12 10 7 8 7 7 7 6 7 7 7 8 8 10 10 10 10 11 12 13 13 13 6 6 6 10 13 14 14 15 15
7 6 6 8 11 14 14 14 12 14 13 10 10 9 9 9 8 8 7 8 10 9 9 8 8 9 9 10 10 12 12 13 13 9 7 6 5 7 12 13 13 14 12
6 6 7 10 12 11 9 9 9 9 11 9 11 12 10 10 9 8 9 9 9 9 8 9 9 10 10 10 11 13 13 13 12 7 7 9 8 16 16 14 16 14 14
7 6 6 11 11 11 11 10 12 12 10 11 12 11 11 11 10 9 9 10 10 9 10 10 10 11 10 11 12 12 14 14 6 6 6 7 7 12 13 14 15 15 15
8 6 6 9 11 16 13 15 15 13 14 14 14 13 12 11 10 10 11 11 11 10 10 11 10 11 10 11 12 13 14 13 7 6 6 5 11 12 13 14 15 14 14
5 6 5 6 8 13 14 16 13 14 15 15 14 13 12 11 11 11 11 11 11 11 11 11 10 10 11 11 12 13 14 13 7 5 6 4 11 11 13 13 13 13 13
5 5 6 6 6 5 5 14 11 13 14 13 13 12 10 11 10 11 9 12 12 12 11 11 10 10 11 12 12 12 12 12 6 5 4 4 10 10 11 11 11 11 11
5 7 6 6 6 6 6 5 9 11 12 12 10 11 8 4 5 6 6 11 12 12 11 11 11 10 11 11 11 11 10 4 5 4 3 10 9 9 10 10 10 10 11
10 9 7 7 7 6 5 6 6 5 5 5 6 7 5 5 4 4 5 8 10 10 10 10 11 10 8 4 4 7 3 4 4 4 3 10 9 8 9 9 9 10 11
12 7 11 9 7 8 6 4 3 3 4 4 7 6 5 4 3 3 3 3 4 7 4 5 5 4 5 4 4 4 5 5 3 3 6 9 8 7 8 8 10 10 11
12 12 10 10 10 8 5 5 5 5 4 4 5 7 5 4 4 4 3 4 4 3 4 3 3 3 4 4 4 4 4 3 2 2 4 8 8 8 8 10 10 10 12
11 13 14 13 13 11 9 6 6 6 6 6 6 6 6 5 5 5 4 4 4 4 4 4 4 4 3 3 3 4 4 4 4 2 2 7 9 9 8 11 11 12 13
14 15 13 15 15 12 12 11 9 7 6 6 6 7 8 6 6 5 5 4 4 4 3 4 4 4 3 2 4 3 3 3 3 3 2 3 9 9 10 10 11 12 15
15 12 16 16 14 15 15 11 9 8 7 8 8 8 9 8 8 7 5 5 4 4 5 4 3 2 2 1 3 3 3 3 3 4 4 3 5 8 11 12 11 15 15
11 16 15 15 18 17 16 12 9 8 8 8 7 7 10 9 9 7 6 5 5 4 4 4 3 2 2 2 2 3 3 3 4 5 4 4 3 3 8 14 14 12 13
18 16 16 17 18 19 16 11 11 11 9 8 7 8 10 10 9 8 7 6 7 5 4 4 2 2 2 1 1 3 3 3 4 3 5 5 5 4 4 11 13 15 14
13 16 16 15 17 16 11 9 6 7 9 8 9 9 11 9 10 8 6 7 6 5 5 4 3 2 2 2 3 4 4 3 4 4 3 3 5 6 5 5 4 5 10
10 13 16 17 20 15 13 13 10 15 11 10 10 14 14 11 11 10 7 8 7 8 7 6 4 4 1 1 3 2 4 3 4 3 3 4 5 5 5 4 3 3 4
12 15 14 18 17 17 14 13 9 12 11 11 10 11 13 14 13 11 11 9 10 6 7 7 5 4 2 2 3 2 2 2 2 3 2 3 3 2 3 3 3 3 3
11 14 18 19 19 18 18 11 3 5 4 4 7 9 12 15 15 15 13 11 10 8 8 7 6 7 5 1 1 4 3 4 1 1 1 0 2 3 3 5 5 5 5
15 12 15 14 17 17 18 15 19 15 12 12 12 11 12 17 17 16 15 13 12 9 9 9 6 4 5 5 2 2 3 3 4 1 2 2 2 3 2 2 2 3 2
9 11 13 13 14 15 18 19 16 16 11 5 8 13 12 12 14 15 15 14 13 10 9 10 8 7 4 5 4 4 2 3 3 3 3 2 2 3 2 2 3 3 3
9 7 7 10 14 15 17 18 20 20 11 8 11 12 11 9 9 12 14 13 12 12 12 10 9 8 7 4 4 4 5 5 4 4 2 2 2 3 2 4 3 3 2
Wind_Direction
223 190 188 178 177 170 164 160 156 152 148 147 137 130 122 115 98 74 75 90 91 93 85 70 56 50 49 52 43 38 33 27 22 20 18 12 15 79 71 54 51 40 40
149 180 194 183 180 174 165 169 169 162 155 150 135 129 124 114 115 101 73 60 69 69 64 60 51 43 42 41 38 32 28 29 25 23 19 15 10 67 65 57 46 50 39
154 171 188 176 175 169 167 165 162 157 152 150 145 128 99 112 115 110 111 88 80 75 76 72 58 52 51 50 41 31 30 32 27 25 22 9 359 56 55 52 44 43 36
150 158 155 165 175 172 163 166 165 160 152 148 134 112 113 118 119 126 120 108 103 111 91 75 68 62 56 54 46 40 35 42 36 36 23 8 9 39 61 51 47 42 35
150 153 157 153 158 164 168 166 152 145 145 142 138 146 153 147 149 136 126 117 99 98 96 88 80 76 73 63 59 59 54 58 52 36 25 6 4 28 62 61 50 42 35
156 154 167 163 165 163 165 162 157 146 144 160 181 175 167 157 153 145 134 119 111 106 103 95 90 85 74 67 65 62 62 62 59 38 25 10 2 50 49 56 50 40 30
162 164 171 172 174 173 165 164 180 184 163 181 182 173 164 157 152 149 137 130 119 117 110 105 100 89 83 74 67 62 65 61 54 50 33 12 6 42 38 36 43 31 31
158 167 176 181 176 189 187 189 192 189 180 183 178 171 167 159 153 149 139 135 128 123 114 107 100 90 82 76 70 65 61 60 52 45 37 16 24 40 42 38 41 33 33
161 164 177 173 172 188 189 190 190 177 184 179 177 172 169 161 156 150 141 138 133 124 114 105 99 93 83 75 72 69 69 65 58 46 34 11 32 43 40 39 40 35 34
184 189 183 176 168 168 170 192 176 182 177 180 177 166 157 155 154 150 148 147 141 127 119 111 98 86 80 72 64 62 59 58 54 43 30 29 40 46 50 45 43 41 38
213 203 191 183 176 166 164 175 163 171 171 172 162 141 123 108 120 115 160 148 138 127 122 114 107 96 85 73 67 63 63 47 49 38 10 34 40 50 53 49 47 47 49
208 203 191 185 178 168 164 166 156 160 153 145 139 126 129 136 140 144 136 135 131 126 118 107 96 82 70 66 50 51 54 54 52 37 9 25 35 44 55 54 55 56 55
204 193 194 185 178 172 173 163 161 155 149 148 147 144 146 144 156 123 95 70 65 77 57 75 70 59 65 58 46 43 40 41 28 31 7 23 25 41 55 66 65 59 59
194 199 188 185 182 183 167 177 171 167 166 165 166 159 153 156 157 147 134 138 127 125 119 112 109 106 92 78 78 76 64 56 51 36 20 30 35 50 65 70 68 67 62
208 202 196 186 191 185 183 173 176 185 179 174 171 170 161 164 166 153 162 158 151 153 143 147 136 122 108 99 80 78 68 59 58 58 49 51 55 62 73 80 76 66 68
208 206 196 197 194 184 192 187 189 183 177 176 175 180 173 167 165 165 162 165 158 151 159 145 147 135 117 109 85 78 73 50 61 77 85 54 72 65 75 71 76 74 64
217 198 196 196 194 194 197 190 187 188 181 186 187 177 176 174 173 165 162 167 165 164 150 131 126 113 113 109 93 79 83 79 81 72 60 60 56 50 78 83 72 70 58
204 203 192 192 193 195 197 190 191 186 186 189 185 181 182 180 173 163 166 169 163 162 152 156 150 114 81 48 27 44 56 84 98 94 89 81 81 60 57 73 61 52 40
203 200 199 196 198 196 197 187 188 181 188 188 180 183 186 182 175 170 172 165 159 159 167 158 124 139 150 156 94 72 68 87 98 102 102 94 103 95 73 65 60 43 23
214 205 198 193 197 192 193 188 185 181 192 178 183 187 180 181 176 169 164 163 159 158 169 163 148 125 144 152 82 73 46 77 51 71 64 89 111 101 88 78 64 26 27
203 204 204 190 194 180 184 181 190 203 194 196 193 182 177 179 177 176 172 164 170 178 178 167 138 151 157 154 114 46 46 83 62 54 43 67 81 79 69 64 47 40 26
215 211 209 209 195 193 190 200 202 192 206 200 188 185 179 173 176 179 175 179 178 164 171 174 157 140 124 172 136 92 112 330 27 35 63 54 92 72 35 48 42 61 64
222 211 209 205 201 198 196 178 109 81 61 139 189 181 184 181 178 181 179 175 175 172 178 181 173 164 151 157 135 141 115 220 144 22 207 303 359 16 10 3 353 359 4
228 218 214 211 203 196 186 185 194 195 189 203 194 192 193 187 183 180 177 175 175 177 174 184 170 171 146 162 133 101 66 133 166 185 262 245 242 294 222 318 323 318 331
254 228 212 200 201 195 194 193 192 205 212 171 172 181 185 190 190 182 179 177 177 178 182 174 164 181 181 154 154 153 125 63 62 119 207 253 282 244 246 297 306 299 296
274 244 224 207 197 188 190 200 200 204 189 165 168 175 180 181 186 190 184 182 182 180 178 180 180 172 183 175 163 164 160 160 177 157 177 192 235 304 247 264 231 231 233